,,,PA_Meas_PMT16A,,PR_Meas_QMR101_102,,RH_Meas_QMH101,,SR_Meas_QMS101,,TA_Meas_QMH101,,GenWind,,GenWind,
date,time,status,PA,status,PR,status,RH,status,SR,status,TA,status,DirAvg,status,SpdAvg,
2014-01-24, 00:00:05,VALID,1012.39,VALID,0,VALID,86.7277,VALID,0,VALID,23.6161,VALID,316,VALID,0.273438,
2014-01-24, 00:01:05,VALID,1012.39,VALID,0,VALID,86.5447,VALID,0,VALID,23.6161,VALID,307,VALID,1.44531,
2014-01-24, 00:02:05,VALID,1012.4,VALID,0,VALID,86.4227,VALID,0,VALID,23.6373,VALID,304,VALID,0.675781,
2014-01-24, 00:03:05,VALID,1012.41,VALID,0,VALID,86.2015,VALID,0,VALID,23.6356,VALID,300,VALID,1.47539,
2014-01-24, 00:04:05,VALID,1012.38,VALID,0,VALID,86.4684,VALID,0,VALID,23.6161,VALID,306,VALID,1.44922,
2014-01-24, 00:05:05,VALID,1012.4,VALID,0,VALID,86.3922,VALID,0,VALID,23.6161,VALID,333,VALID,0.877734,
2014-01-24, 00:06:05,VALID,1012.38,VALID,0,VALID,86.5294,VALID,0,VALID,23.5966,VALID,311,VALID,0.923437,
2014-01-24, 00:07:05,VALID,1012.38,VALID,0,VALID,86.4303,VALID,0,VALID,23.6161,VALID,301,VALID,0.335156,
2014-01-24, 00:08:05,VALID,1012.37,VALID,0,VALID,86.4913,VALID,0,VALID,23.5966,VALID,326,VALID,1.06211,
2014-01-24, 00:09:05,VALID,1012.37,VALID,0,VALID,86.6133,VALID,0,VALID,23.5771,VALID,355,VALID,0.805859,
2014-01-24, 00:10:05,VALID,1012.38,VALID,0,VALID,86.7734,VALID,0,VALID,23.5576,VALID,344,VALID,0.820313,
2014-01-24, 00:11:05,VALID,1012.37,VALID,0,VALID,86.9336,VALID,0,VALID,23.5381,VALID,357,VALID,0.624609,
2014-01-24, 00:12:05,VALID,1012.33,VALID,0,VALID,87.3835,VALID,0,VALID,23.5186,VALID,299,VALID,0.688672,
2014-01-24, 00:13:05,VALID,1012.33,VALID,0,VALID,87.5284,VALID,0,VALID,23.4992,VALID,320,VALID,0.539844,
2014-01-24, 00:14:05,VALID,1012.34,VALID,0,VALID,87.6962,VALID,0,VALID,23.4602,VALID,313,VALID,0.361328,
2014-01-24, 00:15:05,VALID,1012.28,VALID,0,VALID,88.0546,VALID,0,VALID,23.4407,VALID,314,VALID,0.514844,
2014-01-24, 00:16:05,VALID,1012.26,VALID,0,VALID,88.474,VALID,0,VALID,23.4212,VALID,314,VALID,0.308203,
2014-01-24, 00:17:05,VALID,1012.25,VALID,0,VALID,89.0917,VALID,0,VALID,23.4017,VALID,266,VALID,0.958984,
2014-01-24, 00:18:05,VALID,1012.23,VALID,0,VALID,89.4653,VALID,0,VALID,23.3823,VALID,321,VALID,0.695703,
2014-01-24, 00:19:05,VALID,1012.26,VALID,0,VALID,89.3662,VALID,0,VALID,23.3628,VALID,353,VALID,0.423047,
2014-01-24, 00:20:05,VALID,1012.27,VALID,0,VALID,89.595,VALID,0,VALID,23.3628,VALID,332,VALID,0.984766,
2014-01-24, 00:21:05,VALID,1012.27,VALID,0,VALID,89.9,VALID,0,VALID,23.3628,VALID,263,VALID,0.427344,
2014-01-24, 00:22:05,VALID,1012.3,VALID,0,VALID,89.6484,VALID,0,VALID,23.3628,VALID,305,VALID,1.0207,
2014-01-24, 00:23:05,VALID,1012.3,VALID,0,VALID,89.7856,VALID,0,VALID,23.3628,VALID,316,VALID,0.673437,
2014-01-24, 00:24:05,VALID,1012.28,VALID,0,VALID,89.8924,VALID,0,VALID,23.3823,VALID,265,VALID,0.415625,
2014-01-24, 00:25:05,VALID,1012.28,VALID,0,VALID,89.8848,VALID,0,VALID,23.3628,VALID,266,VALID,0.316797,
2014-01-24, 00:26:05,VALID,1012.28,VALID,0,VALID,89.9534,VALID,0,VALID,23.3628,VALID,318,VALID,0.506641,
2014-01-24, 00:27:05,VALID,1012.25,VALID,0,VALID,90.1288,VALID,0,VALID,23.3238,VALID,278,VALID,0.829297,
2014-01-24, 00:28:05,VALID,1012.28,VALID,0,VALID,90.6321,VALID,0,VALID,23.3628,VALID,304,VALID,0.798437,
2014-01-24, 00:29:05,VALID,1012.26,VALID,0,VALID,90.9447,VALID,0,VALID,23.3433,VALID,278,VALID,0.949219,
2014-01-24, 00:30:05,VALID,1012.23,VALID,0,VALID,91.0134,VALID,0,VALID,23.3433,VALID,317,VALID,1.02109,
2014-01-24, 00:31:05,VALID,1012.19,VALID,0,VALID,91.0515,VALID,0,VALID,23.3238,VALID,332,VALID,0.674609,
2014-01-24, 00:32:05,VALID,1012.15,VALID,0,VALID,91.143,VALID,0,VALID,23.3238,VALID,324,VALID,1.1793,
2014-01-24, 00:33:05,VALID,1012.14,VALID,0,VALID,91.3336,VALID,0,VALID,23.3238,VALID,306,VALID,1.09453,
2014-01-24, 00:34:05,VALID,1012.09,VALID,0,VALID,91.8064,VALID,0,VALID,23.3043,VALID,232,VALID,0.382031,
2014-01-24, 00:35:05,VALID,1012.08,VALID,0,VALID,92.2487,VALID,0,VALID,23.2848,VALID,123,VALID,0.901172,
2014-01-24, 00:36:05,VALID,1012.1,VALID,0,VALID,92.8283,VALID,0,VALID,23.2654,VALID,354,VALID,0.339063,
2014-01-24, 00:37:05,VALID,1012.08,VALID,0,VALID,93.2096,VALID,0,VALID,23.2654,VALID,327,VALID,0.590625,
2014-01-24, 00:38:05,VALID,1012.12,VALID,0,VALID,93.5756,VALID,0,VALID,23.2671,VALID,290,VALID,0.611328,
2014-01-24, 00:39:05,VALID,1012.12,VALID,0,VALID,93.8044,VALID,0,VALID,23.2654,VALID,336,VALID,0.43125,
2014-01-24, 00:40:05,VALID,1012.1,VALID,0,VALID,94.0789,VALID,0,VALID,23.2459,VALID,305,VALID,0.666406,
2014-01-24, 00:41:05,VALID,1012.12,VALID,0,VALID,94.1628,VALID,0,VALID,23.2459,VALID,305,VALID,0.564844,
2014-01-24, 00:42:05,VALID,1012.11,VALID,0,VALID,94.4373,VALID,0,VALID,23.2459,VALID,290,VALID,0.300391,
2014-01-24, 00:43:05,VALID,1012.09,VALID,0,VALID,94.3534,VALID,0,VALID,23.2476,VALID,12,VALID,0.477734,
2014-01-24, 00:44:05,VALID,1012.09,VALID,0,VALID,94.4983,VALID,0,VALID,23.2459,VALID,307,VALID,0.907812,
2014-01-24, 00:45:05,VALID,1012.08,VALID,0,VALID,94.5593,VALID,0,VALID,23.2459,VALID,300,VALID,0.430859,
2014-01-24, 00:46:05,VALID,1012.06,VALID,0,VALID,94.506,VALID,0,VALID,23.2264,VALID,338,VALID,0.604297,
2014-01-24, 00:47:05,VALID,1012.03,VALID,0,VALID,94.5898,VALID,0,VALID,23.2264,VALID,337,VALID,0.330859,
2014-01-24, 00:48:05,VALID,1012.02,VALID,0,VALID,94.6508,VALID,0,VALID,23.2069,VALID,287,VALID,0.896094,
2014-01-24, 00:49:05,VALID,1012.04,VALID,0,VALID,94.6508,VALID,0,VALID,23.2264,VALID,290,VALID,1.13242,
2014-01-24, 00:50:05,VALID,1012.01,VALID,0,VALID,94.8186,VALID,0,VALID,23.2264,VALID,351,VALID,0.637891,
2014-01-24, 00:51:05,VALID,1012.01,VALID,0,VALID,95.0245,VALID,0,VALID,23.2069,VALID,351,VALID,0.23125,
2014-01-24, 00:52:05,VALID,1012.02,VALID,0,VALID,95.1008,VALID,0,VALID,23.2069,VALID,292,VALID,0.987109,
2014-01-24, 00:53:05,VALID,1012,VALID,0,VALID,95.5583,VALID,0,VALID,23.1874,VALID,290,VALID,0.287109,
2014-01-24, 00:54:05,VALID,1011.97,VALID,0,VALID,95.7337,VALID,0,VALID,23.1874,VALID,291,VALID,0.553906,
2014-01-24, 00:55:05,VALID,1011.97,VALID,0,VALID,96.0235,VALID,0,VALID,23.1857,VALID,291,VALID,0.475,
2014-01-24, 00:56:05,VALID,1011.97,VALID,0,VALID,96.2218,VALID,0,VALID,23.129,VALID,291,VALID,0.316016,
2014-01-24, 00:57:05,VALID,1011.96,VALID,0,VALID,96.6335,VALID,0,VALID,23.1095,VALID,291,VALID,0.476563,
2014-01-24, 00:58:05,VALID,1011.96,VALID,0,VALID,96.992,VALID,0,VALID,23.1095,VALID,263,VALID,0.539453,
2014-01-24, 00:59:05,VALID,1011.96,VALID,0,VALID,97.2055,VALID,0,VALID,23.09,VALID,323,VALID,0.549609,
2014-01-24, 01:00:05,VALID,1011.95,VALID,0,VALID,97.5029,VALID,0,VALID,23.0688,VALID,323,VALID,0.373828,
2014-01-24, 01:01:05,VALID,1011.91,VALID,0,VALID,97.9223,VALID,0,VALID,23.0705,VALID,323,VALID,0.745703,
2014-01-24, 01:02:05,VALID,1011.9,VALID,0,VALID,98.4714,VALID,0,VALID,23.0103,VALID,322,VALID,0.868359,
2014-01-24, 01:03:05,VALID,1011.9,VALID,0,VALID,99.2416,VALID,0,VALID,23.0121,VALID,322,VALID,0.400781,
2014-01-24, 01:04:05,VALID,1011.88,VALID,0,VALID,99.4322,VALID,0,VALID,23.0121,VALID,323,VALID,0.723047,
2014-01-24, 01:05:05,VALID,1011.87,VALID,0,VALID,99.7525,VALID,0,VALID,22.9926,VALID,323,VALID,0.617188,
2014-01-24, 01:06:05,VALID,1011.83,VALID,0,VALID,100.248,VALID,0,VALID,22.9519,VALID,356,VALID,0.632422,
2014-01-24, 01:07:05,VALID,1011.82,VALID,0,VALID,100.477,VALID,0,VALID,22.9536,VALID,357,VALID,0.700391,
2014-01-24, 01:08:05,VALID,1011.82,VALID,0,VALID,100.614,VALID,0,VALID,22.9129,VALID,357,VALID,0.469922,
2014-01-24, 01:09:05,VALID,1011.8,VALID,0,VALID,100.835,VALID,0,VALID,22.8952,VALID,357,VALID,0.376953,
2014-01-24, 01:10:05,VALID,1011.75,VALID,0,VALID,100.965,VALID,0,VALID,22.8775,VALID,356,VALID,0.173438,
2014-01-24, 01:11:05,VALID,1011.72,VALID,0,VALID,101.247,VALID,0,VALID,22.8562,VALID,357,VALID,0.640234,
2014-01-24, 01:12:05,VALID,1011.69,VALID,0,VALID,101.339,VALID,0,VALID,22.8368,VALID,356,VALID,0.328125,
2014-01-24, 01:13:05,VALID,1011.67,VALID,0,VALID,101.423,VALID,0,VALID,22.8173,VALID,356,VALID,0.103125,
2014-01-24, 01:14:05,VALID,1011.67,VALID,0,VALID,101.529,VALID,0,VALID,22.7783,VALID,357,VALID,0.0371094,
2014-01-24, 01:15:05,VALID,1011.65,VALID,0,VALID,101.697,VALID,0,VALID,22.7995,VALID,357,VALID,0.04375,
2014-01-24, 01:16:05,VALID,1011.63,VALID,0,VALID,101.872,VALID,0,VALID,22.7588,VALID,356,VALID,0.445313,
2014-01-24, 01:17:05,VALID,1011.6,VALID,0,VALID,102.078,VALID,0,VALID,22.7394,VALID,357,VALID,0.373437,
2014-01-24, 01:18:05,VALID,1011.55,VALID,0,VALID,102.185,VALID,0,VALID,22.7411,VALID,342,VALID,0.865234,
2014-01-24, 01:19:05,VALID,1011.55,VALID,0,VALID,102.315,VALID,0,VALID,22.7004,VALID,1,VALID,0.780469,
2014-01-24, 01:20:05,VALID,1011.53,VALID,0,VALID,102.414,VALID,0,VALID,22.6809,VALID,12,VALID,0.670703,
2014-01-24, 01:21:05,VALID,1011.51,VALID,0,VALID,102.536,VALID,0,VALID,22.6402,VALID,12,VALID,0.221094,
2014-01-24, 01:22:05,VALID,1011.47,VALID,0,VALID,102.673,VALID,0,VALID,22.6614,VALID,12,VALID,0.333984,
2014-01-24, 01:23:05,VALID,1011.45,VALID,0,VALID,102.734,VALID,0,VALID,22.6013,VALID,12,VALID,0.326172,
2014-01-24, 01:24:05,VALID,1011.4,VALID,0,VALID,102.871,VALID,0,VALID,22.603,VALID,12,VALID,0.398828,
2014-01-24, 01:25:05,VALID,1011.38,VALID,0,VALID,103.016,VALID,0,VALID,22.6225,VALID,12,VALID,0.515625,
2014-01-24, 01:26:05,VALID,1011.35,VALID,0,VALID,103.047,VALID,0,VALID,22.6225,VALID,12,VALID,0.343359,
2014-01-24, 01:27:05,VALID,1011.33,VALID,0,VALID,103.047,VALID,0,VALID,22.603,VALID,12,VALID,0.478125,
2014-01-24, 01:28:05,VALID,1011.28,VALID,0,VALID,103.115,VALID,0,VALID,22.5835,VALID,12,VALID,0.807031,
2014-01-24, 01:29:05,VALID,1011.25,VALID,0,VALID,103.115,VALID,0,VALID,22.603,VALID,12,VALID,0.130469,
2014-01-24, 01:30:05,VALID,1011.23,VALID,0,VALID,103.154,VALID,0,VALID,22.5835,VALID,12,VALID,0.434766,
2014-01-24, 01:31:05,VALID,1011.21,VALID,0,VALID,103.215,VALID,0,VALID,22.5835,VALID,12,VALID,0.287109,
2014-01-24, 01:32:05,VALID,1011.2,VALID,0,VALID,103.215,VALID,0,VALID,22.564,VALID,12,VALID,0.0195313,
2014-01-24, 01:33:05,VALID,1011.2,VALID,0,VALID,103.298,VALID,0,VALID,22.5429,VALID,12,VALID,0.154297,
2014-01-24, 01:34:05,VALID,1011.16,VALID,0,VALID,103.382,VALID,0,VALID,22.5446,VALID,12,VALID,0.114063,
2014-01-24, 01:35:05,VALID,1011.2,VALID,0,VALID,103.42,VALID,0,VALID,22.5251,VALID,12,VALID,0.128516,
2014-01-24, 01:36:05,VALID,1011.17,VALID,0,VALID,103.489,VALID,0.112112,VALID,22.5039,VALID,12,VALID,0.127344,
2014-01-24, 01:37:05,VALID,1011.16,VALID,0,VALID,103.581,VALID,0.112112,VALID,22.5056,VALID,12,VALID,0.0589844,
2014-01-24, 01:38:05,VALID,1011.16,VALID,0,VALID,103.733,VALID,0,VALID,22.4667,VALID,12,VALID,0.0164062,
2014-01-24, 01:39:05,VALID,1011.12,VALID,0,VALID,103.863,VALID,0,VALID,22.4455,VALID,12,VALID,0.107031,
2014-01-24, 01:40:05,VALID,1011.11,VALID,0,VALID,103.97,VALID,0,VALID,22.4472,VALID,12,VALID,0.492969,
2014-01-24, 01:41:05,VALID,1011.13,VALID,0,VALID,104,VALID,0,VALID,22.4667,VALID,12,VALID,0.385938,
2014-01-24, 01:42:05,VALID,1011.17,VALID,0,VALID,104,VALID,0,VALID,22.4277,VALID,12,VALID,0.222656,
2014-01-24, 01:43:05,VALID,1011.14,VALID,0,VALID,104,VALID,0,VALID,22.426,VALID,12,VALID,0.00546875,
2014-01-24, 01:44:05,VALID,1011.11,VALID,0,VALID,104,VALID,0,VALID,22.4082,VALID,12,VALID,0,
2014-01-24, 01:45:05,VALID,1011.13,VALID,0,VALID,104,VALID,0.112112,VALID,22.4082,VALID,12,VALID,0.169531,
2014-01-24, 01:46:05,VALID,1011.13,VALID,0,VALID,104,VALID,0.112112,VALID,22.387,VALID,10,VALID,0.411328,
2014-01-24, 01:47:05,VALID,1011.11,VALID,0,VALID,104,VALID,0.112112,VALID,22.4065,VALID,23,VALID,0.285547,
2014-01-24, 01:48:05,VALID,1011.09,VALID,0,VALID,104,VALID,0.112112,VALID,22.4065,VALID,23,VALID,0.0394531,
2014-01-24, 01:49:05,VALID,1011.1,VALID,0,VALID,104,VALID,0,VALID,22.4472,VALID,24,VALID,0.839453,
2014-01-24, 01:50:05,VALID,1011.1,VALID,0,VALID,104,VALID,0,VALID,22.426,VALID,27,VALID,0.642187,
2014-01-24, 01:51:05,VALID,1011.07,VALID,0,VALID,104,VALID,0,VALID,22.4472,VALID,28,VALID,0,
2014-01-24, 01:52:05,VALID,1011.08,VALID,0,VALID,104,VALID,0.112112,VALID,22.4667,VALID,27,VALID,0.115234,
2014-01-24, 01:53:05,VALID,1011.09,VALID,0,VALID,104,VALID,0.112112,VALID,22.4472,VALID,28,VALID,0.271875,
2014-01-24, 01:54:05,VALID,1011.04,VALID,0,VALID,104,VALID,0.112112,VALID,22.4455,VALID,28,VALID,0.304297,
2014-01-24, 01:55:05,VALID,1011,VALID,0,VALID,104,VALID,0,VALID,22.4667,VALID,28,VALID,0.00117188,
2014-01-24, 01:56:05,VALID,1011,VALID,0,VALID,104,VALID,0,VALID,22.4455,VALID,7,VALID,0.672266,
2014-01-24, 01:57:05,VALID,1011.02,VALID,0,VALID,104,VALID,0,VALID,22.4667,VALID,6,VALID,0.0269531,
2014-01-24, 01:58:05,VALID,1011,VALID,0,VALID,104,VALID,0,VALID,22.4667,VALID,7,VALID,0.142578,
2014-01-24, 01:59:05,VALID,1010.98,VALID,0,VALID,104,VALID,0,VALID,22.4455,VALID,7,VALID,0.272656,
2014-01-24, 02:00:05,VALID,1010.97,VALID,0,VALID,104,VALID,0,VALID,22.4455,VALID,7,VALID,0.500391,
2014-01-24, 02:01:05,VALID,1010.96,VALID,0,VALID,104,VALID,0.112112,VALID,22.4667,VALID,6,VALID,0.309766,
2014-01-24, 02:02:05,VALID,1010.93,VALID,0,VALID,104,VALID,0,VALID,22.465,VALID,7,VALID,0.489453,
2014-01-24, 02:03:05,VALID,1010.9,VALID,0,VALID,104,VALID,0,VALID,22.5056,VALID,354,VALID,0.557031,
2014-01-24, 02:04:05,VALID,1010.88,VALID,0,VALID,104,VALID,0,VALID,22.5056,VALID,349,VALID,0.277344,
2014-01-24, 02:05:05,VALID,1010.88,VALID,0,VALID,104,VALID,0,VALID,22.5056,VALID,349,VALID,0.303125,
2014-01-24, 02:06:05,VALID,1010.89,VALID,0,VALID,104,VALID,0,VALID,22.5056,VALID,350,VALID,0.342578,
2014-01-24, 02:07:05,VALID,1010.88,VALID,0,VALID,104,VALID,0,VALID,22.5251,VALID,350,VALID,0.107422,
2014-01-24, 02:08:05,VALID,1010.85,VALID,0,VALID,104,VALID,0,VALID,22.5039,VALID,353,VALID,0.0363281,
2014-01-24, 02:09:05,VALID,1010.82,VALID,0,VALID,104,VALID,0,VALID,22.4844,VALID,353,VALID,0.322656,
2014-01-24, 02:10:05,VALID,1010.83,VALID,0,VALID,104,VALID,0,VALID,22.5251,VALID,353,VALID,0,
2014-01-24, 02:11:05,VALID,1010.8,VALID,0,VALID,104,VALID,0.112112,VALID,22.5039,VALID,353,VALID,0.18125,
2014-01-24, 02:12:05,VALID,1010.78,VALID,0,VALID,104,VALID,0,VALID,22.5251,VALID,353,VALID,0.281641,
2014-01-24, 02:13:05,VALID,1010.76,VALID,0,VALID,104,VALID,0,VALID,22.5056,VALID,353,VALID,0.219922,
2014-01-24, 02:14:05,VALID,1010.69,VALID,0,VALID,104,VALID,0,VALID,22.5039,VALID,352,VALID,0.467187,
2014-01-24, 02:15:05,VALID,1010.66,VALID,0,VALID,104,VALID,0,VALID,22.5039,VALID,352,VALID,0.239063,
2014-01-24, 02:16:05,VALID,1010.62,VALID,0,VALID,104,VALID,0,VALID,22.4844,VALID,352,VALID,0.524219,
2014-01-24, 02:17:05,VALID,1010.59,VALID,0,VALID,104,VALID,0.112112,VALID,22.5056,VALID,352,VALID,0.502734,
2014-01-24, 02:18:05,VALID,1010.57,VALID,0,VALID,104,VALID,0,VALID,22.4861,VALID,352,VALID,0.385938,
2014-01-24, 02:19:05,VALID,1010.55,VALID,0,VALID,104,VALID,0,VALID,22.465,VALID,355,VALID,0.310156,
2014-01-24, 02:20:05,VALID,1010.51,VALID,0,VALID,104,VALID,0,VALID,22.4455,VALID,355,VALID,0.298438,
2014-01-24, 02:21:05,VALID,1010.49,VALID,0,VALID,104,VALID,0,VALID,22.4455,VALID,355,VALID,0.381641,
2014-01-24, 02:22:05,VALID,1010.44,VALID,0,VALID,104,VALID,0,VALID,22.426,VALID,355,VALID,0.425391,
2014-01-24, 02:23:05,VALID,1010.45,VALID,0,VALID,104,VALID,0,VALID,22.4472,VALID,355,VALID,0.0921875,
2014-01-24, 02:24:05,VALID,1010.46,VALID,0,VALID,104,VALID,0,VALID,22.4065,VALID,356,VALID,0.274219,
2014-01-24, 02:25:05,VALID,1010.46,VALID,0,VALID,104,VALID,0,VALID,22.4065,VALID,356,VALID,0.192969,
2014-01-24, 02:26:05,VALID,1010.44,VALID,0,VALID,104,VALID,0,VALID,22.4082,VALID,355,VALID,0.516016,
2014-01-24, 02:27:05,VALID,1010.44,VALID,0,VALID,104,VALID,0.112112,VALID,22.4277,VALID,355,VALID,0.443359,
2014-01-24, 02:28:05,VALID,1010.42,VALID,0,VALID,104,VALID,0.112112,VALID,22.4277,VALID,355,VALID,0.623438,
2014-01-24, 02:29:05,VALID,1010.43,VALID,0,VALID,104,VALID,0,VALID,22.4277,VALID,349,VALID,0.621094,
2014-01-24, 02:30:05,VALID,1010.45,VALID,0,VALID,104,VALID,0,VALID,22.4082,VALID,349,VALID,0.0210938,
2014-01-24, 02:31:05,VALID,1010.44,VALID,0,VALID,104,VALID,0,VALID,22.4277,VALID,349,VALID,0.422266,
2014-01-24, 02:32:05,VALID,1010.44,VALID,0,VALID,104,VALID,0,VALID,22.4277,VALID,349,VALID,0.2,
2014-01-24, 02:33:05,VALID,1010.42,VALID,0,VALID,104,VALID,0.112112,VALID,22.4277,VALID,350,VALID,0.167187,
2014-01-24, 02:34:05,VALID,1010.43,VALID,0,VALID,104,VALID,0,VALID,22.4277,VALID,16,VALID,0.36875,
2014-01-24, 02:35:05,VALID,1010.38,VALID,0,VALID,104,VALID,0,VALID,22.4489,VALID,16,VALID,0.264844,
2014-01-24, 02:36:05,VALID,1010.38,VALID,0,VALID,104,VALID,0,VALID,22.4082,VALID,17,VALID,0.567187,
2014-01-24, 02:37:05,VALID,1010.42,VALID,0,VALID,104,VALID,0,VALID,22.4277,VALID,8,VALID,0.835547,
2014-01-24, 02:38:05,VALID,1010.45,VALID,0,VALID,104,VALID,0,VALID,22.4277,VALID,7,VALID,0.162109,
2014-01-24, 02:39:05,VALID,1010.45,VALID,0,VALID,104,VALID,0,VALID,22.4277,VALID,7,VALID,0.266797,
2014-01-24, 02:40:05,VALID,1010.39,VALID,0,VALID,104,VALID,0,VALID,22.4277,VALID,7,VALID,0,
2014-01-24, 02:41:05,VALID,1010.38,VALID,0,VALID,104,VALID,0,VALID,22.4277,VALID,5,VALID,0.514844,
2014-01-24, 02:42:05,VALID,1010.35,VALID,0,VALID,104,VALID,0,VALID,22.4082,VALID,7,VALID,0.660547,
2014-01-24, 02:43:05,VALID,1010.34,VALID,0,VALID,104,VALID,0,VALID,22.4065,VALID,11,VALID,0.549609,
2014-01-24, 02:44:05,VALID,1010.34,VALID,0,VALID,104,VALID,0,VALID,22.4082,VALID,11,VALID,0.298828,
2014-01-24, 02:45:05,VALID,1010.29,VALID,0,VALID,104,VALID,0,VALID,22.4082,VALID,11,VALID,0.214453,
2014-01-24, 02:46:04,VALID,1010.27,VALID,0,VALID,104,VALID,0,VALID,22.3887,VALID,11,VALID,0.307031,
2014-01-24, 02:47:04,VALID,1010.27,VALID,0,VALID,104,VALID,0,VALID,22.3887,VALID,11,VALID,0.112891,
2014-01-24, 02:48:04,VALID,1010.24,VALID,0,VALID,104,VALID,0,VALID,22.3693,VALID,11,VALID,0.727344,
2014-01-24, 02:49:04,VALID,1010.23,VALID,0,VALID,104,VALID,0,VALID,22.3904,VALID,11,VALID,0.310547,
2014-01-24, 02:50:04,VALID,1010.22,VALID,0,VALID,104,VALID,0,VALID,22.3693,VALID,11,VALID,0.0355469,
2014-01-24, 02:51:04,VALID,1010.22,VALID,0,VALID,104,VALID,0,VALID,22.3693,VALID,12,VALID,0.172656,
2014-01-24, 02:52:04,VALID,1010.23,VALID,0,VALID,104,VALID,0,VALID,22.3693,VALID,11,VALID,0.475391,
2014-01-24, 02:53:04,VALID,1010.23,VALID,0,VALID,104,VALID,0,VALID,22.3498,VALID,12,VALID,0.16875,
2014-01-24, 02:54:04,VALID,1010.23,VALID,0,VALID,104,VALID,0,VALID,22.3693,VALID,11,VALID,0.234375,
2014-01-24, 02:55:04,VALID,1010.22,VALID,0,VALID,104,VALID,0,VALID,22.3498,VALID,4,VALID,0.674609,
2014-01-24, 02:56:04,VALID,1010.24,VALID,0,VALID,104,VALID,0,VALID,22.3498,VALID,13,VALID,0.273828,
2014-01-24, 02:57:04,VALID,1010.22,VALID,0,VALID,104,VALID,0,VALID,22.3481,VALID,13,VALID,0.326562,
2014-01-24, 02:58:04,VALID,1010.21,VALID,0,VALID,104,VALID,0,VALID,22.3904,VALID,13,VALID,0.416016,
2014-01-24, 02:59:04,VALID,1010.23,VALID,0,VALID,104,VALID,0,VALID,22.3693,VALID,6,VALID,0.699219,
2014-01-24, 03:00:04,VALID,1010.21,VALID,0,VALID,104,VALID,0,VALID,22.3887,VALID,345,VALID,0.799219,
2014-01-24, 03:01:04,VALID,1010.24,VALID,0,VALID,104,VALID,0,VALID,22.3887,VALID,345,VALID,0.19375,
2014-01-24, 03:02:04,VALID,1010.23,VALID,0,VALID,104,VALID,0,VALID,22.4082,VALID,344,VALID,0.374219,
2014-01-24, 03:03:04,VALID,1010.24,VALID,0,VALID,104,VALID,0,VALID,22.4082,VALID,344,VALID,0.297656,
2014-01-24, 03:04:04,VALID,1010.23,VALID,0,VALID,104,VALID,0,VALID,22.4082,VALID,344,VALID,0.500391,
2014-01-24, 03:05:04,VALID,1010.22,VALID,0,VALID,104,VALID,0,VALID,22.3887,VALID,344,VALID,0.425781,
2014-01-24, 03:06:04,VALID,1010.21,VALID,0,VALID,104,VALID,0,VALID,22.4082,VALID,334,VALID,0.698047,
2014-01-24, 03:07:04,VALID,1010.22,VALID,0,VALID,104,VALID,0,VALID,22.3887,VALID,349,VALID,1.02578,
2014-01-24, 03:08:04,VALID,1010.24,VALID,0,VALID,104,VALID,0,VALID,22.3887,VALID,338,VALID,0.697656,
2014-01-24, 03:09:04,VALID,1010.22,VALID,0,VALID,104,VALID,0,VALID,22.3887,VALID,334,VALID,0.517187,
2014-01-24, 03:10:04,VALID,1010.22,VALID,0,VALID,104,VALID,0,VALID,22.3676,VALID,331,VALID,1.25,
2014-01-24, 03:11:04,VALID,1010.17,VALID,0,VALID,104,VALID,0,VALID,22.3693,VALID,337,VALID,0.762891,
2014-01-24, 03:12:04,VALID,1010.16,VALID,0,VALID,104,VALID,0,VALID,22.3693,VALID,337,VALID,0.359766,
2014-01-24, 03:13:04,VALID,1010.15,VALID,0,VALID,104,VALID,0,VALID,22.3498,VALID,337,VALID,0.175781,
2014-01-24, 03:14:04,VALID,1010.15,VALID,0,VALID,104,VALID,0,VALID,22.3303,VALID,337,VALID,0.513281,
2014-01-24, 03:15:04,VALID,1010.12,VALID,0,VALID,104,VALID,0,VALID,22.3303,VALID,337,VALID,0.0503906,
2014-01-24, 03:16:04,VALID,1010.12,VALID,0,VALID,104,VALID,0,VALID,22.2914,VALID,337,VALID,0.424609,
2014-01-24, 03:17:04,VALID,1010.09,VALID,0,VALID,104,VALID,0,VALID,22.2914,VALID,337,VALID,0.373437,
2014-01-24, 03:18:04,VALID,1010.05,VALID,0,VALID,104,VALID,0,VALID,22.3108,VALID,337,VALID,0.233594,
2014-01-24, 03:19:04,VALID,1010.04,VALID,0,VALID,104,VALID,0,VALID,22.2719,VALID,337,VALID,0.291016,
2014-01-24, 03:20:04,VALID,1010.07,VALID,0,VALID,104,VALID,0,VALID,22.2719,VALID,337,VALID,0.648438,
2014-01-24, 03:21:04,VALID,1010.05,VALID,0,VALID,104,VALID,0,VALID,22.2524,VALID,337,VALID,0.0386719,
2014-01-24, 03:22:04,VALID,1010.03,VALID,0,VALID,104,VALID,0,VALID,22.2524,VALID,337,VALID,0,
2014-01-24, 03:23:04,VALID,1010.04,VALID,0,VALID,104,VALID,0,VALID,22.2524,VALID,337,VALID,0.458984,
2014-01-24, 03:24:04,VALID,1010.04,VALID,0,VALID,104,VALID,0,VALID,22.2524,VALID,337,VALID,0.203125,
2014-01-24, 03:25:04,VALID,1010.02,VALID,0,VALID,104,VALID,0,VALID,22.2329,VALID,337,VALID,0.201562,
2014-01-24, 03:26:04,VALID,1009.98,VALID,0,VALID,104,VALID,0,VALID,22.2329,VALID,337,VALID,0.311328,
2014-01-24, 03:27:04,VALID,1009.97,VALID,0,VALID,104,VALID,0,VALID,22.2329,VALID,337,VALID,0.0125,
2014-01-24, 03:28:04,VALID,1009.95,VALID,0,VALID,104,VALID,0,VALID,22.2134,VALID,337,VALID,0.225,
2014-01-24, 03:29:04,VALID,1009.96,VALID,0,VALID,104,VALID,0,VALID,22.2134,VALID,337,VALID,0.220703,
2014-01-24, 03:30:04,VALID,1009.99,VALID,0,VALID,104,VALID,0,VALID,22.194,VALID,337,VALID,0.287891,
2014-01-24, 03:31:04,VALID,1009.94,VALID,0,VALID,104,VALID,0,VALID,22.194,VALID,337,VALID,0.294531,
2014-01-24, 03:32:04,VALID,1009.93,VALID,0,VALID,104,VALID,0,VALID,22.1745,VALID,337,VALID,0.0308594,
2014-01-24, 03:33:04,VALID,1009.89,VALID,0,VALID,104,VALID,0,VALID,22.1745,VALID,337,VALID,0.330859,
2014-01-24, 03:34:04,VALID,1009.89,VALID,0,VALID,104,VALID,0,VALID,22.155,VALID,337,VALID,0.403125,
2014-01-24, 03:35:04,VALID,1009.87,VALID,0,VALID,104,VALID,0.112112,VALID,22.1533,VALID,337,VALID,0.390234,
2014-01-24, 03:36:04,VALID,1009.87,VALID,0,VALID,104,VALID,0,VALID,22.1339,VALID,340,VALID,0.679297,
2014-01-24, 03:37:04,VALID,1009.91,VALID,0,VALID,104,VALID,0,VALID,22.1144,VALID,344,VALID,0.346875,
2014-01-24, 03:38:04,VALID,1009.92,VALID,0,VALID,104,VALID,0,VALID,22.1144,VALID,344,VALID,0.128516,
2014-01-24, 03:39:04,VALID,1009.91,VALID,0,VALID,104,VALID,0,VALID,22.1144,VALID,344,VALID,0,
2014-01-24, 03:40:04,VALID,1009.92,VALID,0,VALID,104,VALID,0.112112,VALID,22.1161,VALID,344,VALID,0,
2014-01-24, 03:41:04,VALID,1009.95,VALID,0,VALID,104,VALID,0.112112,VALID,22.0966,VALID,344,VALID,0,
2014-01-24, 03:42:04,VALID,1009.95,VALID,0,VALID,104,VALID,0.112112,VALID,22.0949,VALID,344,VALID,0,
2014-01-24, 03:43:04,VALID,1009.95,VALID,0,VALID,104,VALID,0,VALID,22.0754,VALID,344,VALID,0.0550781,
2014-01-24, 03:44:04,VALID,1009.95,VALID,0,VALID,104,VALID,0.112112,VALID,22.0949,VALID,344,VALID,0.0859375,
2014-01-24, 03:45:04,VALID,1009.97,VALID,0,VALID,104,VALID,0.112112,VALID,22.0966,VALID,344,VALID,0,
2014-01-24, 03:46:04,VALID,1009.93,VALID,0,VALID,104,VALID,0.112112,VALID,22.0966,VALID,345,VALID,0,
2014-01-24, 03:47:04,VALID,1009.97,VALID,0,VALID,104,VALID,0,VALID,22.0966,VALID,345,VALID,0,
2014-01-24, 03:48:04,VALID,1009.96,VALID,0,VALID,104,VALID,0,VALID,22.0771,VALID,345,VALID,0,
2014-01-24, 03:49:04,VALID,1009.95,VALID,0,VALID,104,VALID,0.112112,VALID,22.0771,VALID,345,VALID,0.127734,